DateTimeUTC,F1_A11,F1_S11,BsB_S11,BsG_S11,BsR_S11,BbsB_S11,BbsG_S11,BbsR_S11,BaB_A11,BaG_A11,BaR_A11,Tu_S11,T_S11,Uu_S11,U_S11,P_S11,T1_A11
2021-10-15T20:00:00Z,00000200,21000000,,,,,,,-000.18,-000.49,-000.36,16.8,24.1,,00.0,0668.4,30.9
2021-10-15T20:01:00Z,00000200,21000000,,,,,,,-000.09,-000.13,0000.16,16.8,24.1,,00.0,0668.4,30.9
2021-10-15T20:02:00Z,00000200,21000000,,,,,,,-000.10,0000.23,-000.46,16.8,24.1,,00.0,0668.5,30.9
2021-10-15T20:03:00Z,00000200,61000000,,,,,,,-000.03,-000.16,0000.49,16.8,24.1,,00.0,0668.5,30.9
2021-10-15T20:04:00Z,00000200,41000000,0000.27,0000.46,0000.35,-000.20,0000.12,0000.10,-000.16,-000.52,-000.54,17.1,24.0,,00.0,0669.5,30.9
2021-10-15T20:05:00Z,00000200,01000000,0000.93,0000.47,0000.81,-000.39,0000.38,0000.14,-000.02,0000.13,0000.15,17.2,23.9,,00.0,0669.5,30.9
2021-10-15T20:06:00Z,00000200,01000000,0001.30,0000.61,0000.37,-000.17,-000.12,0000.10,-000.35,-000.36,-000.16,17.1,23.9,,00.0,0669.6,30.9
2021-10-15T20:07:00Z,00000200,01000000,0001.03,0000.28,0000.27,0000.48,0000.08,-000.05,0000.04,-000.14,-000.26,17.1,23.9,,00.0,0669.6,30.9
2021-10-15T20:08:00Z,00000200,01000000,0001.18,0000.55,0000.34,0000.48,0000.22,0000.15,-000.09,0000.07,0000.18,17.0,23.8,,00.0,0669.5,30.9
2021-10-15T20:09:00Z,00000200,01000000,0000.64,0000.47,0000.24,0000.36,-000.01,0000.18,-000.02,-000.18,-000.11,16.9,23.8,,00.0,0669.5,30.9
2021-10-15T20:10:00Z,00000200,01000000,0001.43,0000.43,0000.40,0000.17,0000.21,-000.03,-000.11,0000.19,-000.01,16.8,23.7,,00.0,0669.5,30.8
2021-10-15T20:11:00Z,00000200,01000000,0001.27,0000.29,0000.64,0000.36,0000.24,0000.17,0000.63,0000.21,0000.27,16.7,23.6,,00.0,0669.5,30.8
2021-10-15T20:12:00Z,00000200,01000000,0000.74,0000.64,0000.43,-000.31,0000.26,0000.27,0000.09,0000.40,0000.06,16.7,23.6,,00.0,0669.4,30.9
2021-10-15T20:13:00Z,00000200,01000000,0000.11,0000.71,0000.39,-000.24,0000.16,0000.28,0000.03,0000.16,-000.06,16.7,23.6,,00.0,0669.4,30.9
2021-10-15T20:14:00Z,00000200,01000000,0001.44,0000.54,0000.72,0000.37,0000.23,0000.08,0000.17,-000.28,0000.46,16.7,23.6,,00.0,0669.4,30.9
2021-10-15T20:15:00Z,00000200,01000000,0000.25,0000.44,0000.30,0000.50,0000.05,0000.19,0000.29,0000.36,0000.25,16.7,23.6,,00.0,0669.5,30.9
2021-10-15T20:16:00Z,00000200,01000000,0001.18,0000.37,0000.25,-000.41,0000.47,0000.12,0000.02,0000.30,0000.05,16.8,23.6,,00.0,0669.5,30.9
2021-10-15T20:17:00Z,00000200,01000000,0000.83,0000.25,0000.73,0000.26,0000.23,-000.22,0000.11,-000.10,-000.08,16.8,23.6,,00.0,0669.5,30.9
2021-10-15T20:18:00Z,00000200,01000000,0000.33,0000.77,0000.24,0000.39,0000.09,-000.01,0000.43,0000.30,0000.48,16.8,23.7,,00.0,0669.5,30.9
2021-10-15T20:19:00Z,00000200,01000000,0000.91,0000.55,0000.43,0000.29,0000.25,-000.09,0000.00,0000.10,-000.40,16.8,23.7,,00.0,0669.5,30.9
2021-10-15T20:20:00Z,00000200,01000000,0000.66,0000.48,0000.38,-000.20,0000.45,-000.04,0000.14,0000.32,0000.49,16.9,23.7,,00.0,0669.5,30.9
2021-10-15T20:21:00Z,00000200,01000000,0000.99,0000.32,0000.45,0000.38,-000.02,-000.05,0000.12,0000.01,0000.04,16.9,23.7,,00.0,0669.5,30.9
2021-10-15T20:22:00Z,00000200,01000000,0001.23,0000.85,0000.56,0000.31,0000.41,0000.07,-000.08,0000.38,0000.07,17.0,23.7,,00.0,0669.5,30.9
2021-10-15T20:23:00Z,00000200,01000000,0000.91,0000.49,0000.65,0000.06,0000.20,0000.31,0000.53,-000.06,0000.01,17.0,23.7,,00.0,0669.5,30.9
2021-10-15T20:24:00Z,00000200,01000000,0000.81,0001.02,0000.55,0000.37,0000.03,0000.14,0003.56,0003.63,0002.94,17.0,23.7,,00.0,0669.5,30.9
2021-10-15T20:25:00Z,00000200,01000000,0000.73,0000.87,0000.35,0000.21,0000.18,-000.12,0000.22,0000.39,0000.07,17.0,23.7,,00.0,0669.5,30.9
2021-10-15T20:26:00Z,00000200,01000000,0001.10,0000.47,0000.46,0000.49,0000.43,0000.24,0000.23,-000.17,0000.62,17.0,23.7,,00.0,0669.6,30.9
2021-10-15T20:27:00Z,00000200,01000000,0000.79,0000.20,0000.29,0000.08,0000.43,-000.04,0000.29,0000.27,-000.27,17.0,23.7,,00.0,0669.6,30.9
2021-10-15T20:28:00Z,00000200,01000000,0000.76,0000.55,0000.77,-000.01,0000.38,0000.17,0000.00,-000.08,0000.28,17.0,23.7,,00.0,0669.6,30.9
2021-10-15T20:29:00Z,00000200,01000000,0000.40,0000.51,0000.47,0000.46,0000.29,-000.33,0000.35,0000.57,0000.24,17.0,23.7,,00.0,0669.5,30.9
2021-10-15T20:30:00Z,00000200,01000000,0000.98,0001.03,0000.33,-000.36,-000.15,-000.01,0000.23,0000.14,0000.08,17.0,23.7,,00.0,0669.5,30.9
2021-10-15T20:31:00Z,00000200,01000000,0001.10,0000.64,0000.82,0000.43,0000.33,0000.19,-000.12,0000.04,-000.00,17.0,23.7,,00.0,0669.5,30.9
2021-10-15T20:32:00Z,00000200,01000000,0001.14,0000.97,0000.28,0000.02,0000.32,0000.01,0000.26,-000.05,0000.36,17.0,23.7,,00.0,0669.5,30.9
2021-10-15T20:33:00Z,00000200,01000000,0001.11,0001.10,0000.67,0000.25,0000.35,0000.28,0005.43,0004.59,0003.53,17.1,23.7,,00.0,0669.5,30.9
2021-10-15T20:34:00Z,00000200,01000000,0002.86,0001.93,0001.34,0001.05,0000.30,0000.30,0032.42,0029.57,0022.31,17.1,23.7,,00.0,0669.5,30.9
2021-10-15T20:35:00Z,00000200,01000000,0001.15,0000.78,0000.81,0000.21,0000.16,0000.21,0009.03,0008.60,0006.08,17.1,23.7,,00.0,0669.5,30.9
2021-10-15T20:36:00Z,00000200,01000000,0001.28,0000.83,0000.58,0000.67,0000.46,0000.31,0002.78,0002.65,0002.16,17.1,23.8,,00.0,0669.5,30.9
2021-10-15T20:37:00Z,00000200,01000000,0000.20,0000.87,0000.52,0000.39,0000.08,0000.48,0000.77,0000.40,0000.25,17.1,23.7,,00.0,0669.5,30.9
2021-10-15T20:38:00Z,00000200,01000000,0001.33,0000.91,0000.79,0000.41,0000.47,-000.12,-000.12,-000.28,-000.14,17.0,23.7,,00.0,0669.5,30.9
2021-10-15T20:39:00Z,00000200,01000000,0001.38,0000.66,0000.46,0000.15,0000.24,-000.05,0000.26,0000.04,-000.07,16.9,23.7,,00.0,0669.4,30.9
2021-10-15T20:40:00Z,00000200,01000000,0000.93,0001.27,0000.54,0000.65,-000.06,0000.12,0000.17,0000.34,0000.27,16.8,23.6,,00.0,0669.4,30.9
2021-10-15T20:41:00Z,00000200,01000000,0000.87,0000.95,0000.58,0000.19,0000.37,0000.03,0000.42,0000.31,0000.29,16.8,23.6,,00.0,0669.4,30.8
2021-10-15T20:42:00Z,00000200,01000000,0000.71,0000.81,0000.32,0000.02,0000.40,0000.10,0000.42,0000.32,0000.22,16.7,23.6,,00.0,0669.4,30.9
2021-10-15T20:43:00Z,00000200,01000000,0001.38,0001.00,0000.77,0000.31,-000.06,-000.02,0000.22,0000.56,0000.21,16.7,23.5,,00.0,0669.3,30.9
2021-10-15T20:44:00Z,00000200,01000000,0000.80,0001.06,0000.54,0000.42,0000.38,0000.11,0000.21,-000.01,0000.20,16.7,23.5,,00.0,0669.3,30.9
2021-10-15T20:45:00Z,00000200,01000000,0001.00,0000.90,0000.69,0000.15,0000.17,0000.34,0000.10,0000.15,0000.63,16.8,23.5,,00.0,0669.3,30.8
2021-10-15T20:46:00Z,00000200,01000000,0000.58,0000.88,0000.53,-000.08,0000.30,-000.11,0000.45,0000.37,-000.30,16.8,23.6,,00.0,0669.3,30.9
2021-10-15T20:47:00Z,00000200,01000000,0000.83,0000.86,0001.01,0000.38,0000.36,0000.19,0005.60,0004.79,0003.90,16.8,23.6,,00.0,0669.3,30.9
2021-10-15T20:48:00Z,00000200,01000000,0001.78,0001.75,0001.02,0000.24,0000.58,0000.15,0023.90,0021.68,0016.17,16.8,23.6,,00.0,0669.3,30.9
2021-10-15T20:49:00Z,00000200,01000000,0002.20,0001.39,0000.67,0001.05,0000.38,0000.25,0029.35,0026.36,0020.19,16.9,23.6,,00.0,0669.3,30.9
2021-10-15T20:50:00Z,00000200,01000000,0001.45,0000.98,0000.81,0000.54,0000.49,-000.06,0027.33,0025.07,0018.90,16.9,23.6,,00.0,0669.3,30.9
2021-10-15T20:51:00Z,00000200,01000000,0001.35,0000.84,0000.70,0000.53,0000.18,-000.08,0016.72,0014.68,0011.22,16.9,23.6,,00.0,0669.3,30.9
2021-10-15T20:52:00Z,00000200,01000000,0000.57,0000.76,0000.62,0000.39,0000.17,0000.22,0005.52,0005.33,0003.79,16.9,23.6,,00.0,0669.3,30.9
2021-10-15T20:53:00Z,00000200,01000000,0000.41,0000.82,0000.38,0000.51,0000.46,0000.10,0001.18,0000.85,0000.74,16.9,23.6,,00.0,0669.3,30.9
2021-10-15T20:54:00Z,00000200,01000000,0000.56,0000.74,0000.53,0000.29,0000.25,0000.10,0000.94,0000.35,0000.56,16.9,23.6,,00.0,0669.3,30.9
2021-10-15T20:55:00Z,00000200,01000000,0001.66,0000.69,0000.55,0000.54,0000.21,0000.05,0000.10,0000.22,-000.19,16.8,23.6,,00.0,0669.3,30.9
2021-10-15T20:56:00Z,00000200,01000000,0000.62,0000.75,0000.13,-000.27,0000.18,0000.15,0000.66,0000.71,0000.26,16.7,23.5,,00.0,0669.3,30.9
2021-10-15T20:57:00Z,00000200,41000000,,,,,,,0001.70,0001.48,0001.60,16.8,23.6,,00.0,0669.2,30.9
2021-10-15T20:58:00Z,00000200,61000000,,,,,,,-000.30,-000.14,0000.19,16.4,23.7,,00.0,0668.3,30.8
2021-10-15T20:59:00Z,00000200,21000000,,,,,,,-000.04,0000.23,-000.23,16.4,23.8,,00.0,0668.3,30.8
